Regional Weather Roundup
Issued by NWS

Home | Current Version | Previous Version | Graphics & Text | Print | Product List | Glossary On
Versions: 1 2 3 4 5 6 7 8 9 10 11 12 13 14 15 16 17 18 19 20 21 22 23 24 25 26 27 28 29 30 31 32 33 34 35 36 37 38 39 40 41 42 43 44 45 46 47 48 49 50
461
ASUS45 KBOU 252107
RWRCO

WEATHER ROUNDUP FOR COLORADO
NATIONAL WEATHER SERVICE DENVER/BOULDER CO
300 PM MDT WED MAY 25 2016

NOTE: "FAIR" INDICATES FEW OR NO CLOUDS BELOW 12000 FEET WITH NO
SIGNIFICANT WEATHER AND/OR OBSTRUCTIONS TO VISIBILITY.

COZ001>005-013-030-031-252200-
...NORTHWEST COLORADO...

CITY           SKY/WX    TMP DP  RH WIND       PRES   REMARKS
CRAIG          FAIR      67  25  20 W18G32    30.02F
HAYDEN         FAIR      63  21  20 W18G30    30.04S
MEEKER         FAIR      67  19  16 SW16G24   30.04F
MOUNT WERNER   NOT AVBL
STEAMBOAT SPGS PTSUNNY   62  24  24 W16G26    30.04F
WALDEN         PTSUNNY   55  21  26 SW18      30.10F
$$

COZ006>008-011-252200-
...WEST CENTRAL VALLEYS...

CITY           SKY/WX    TMP DP  RH WIND       PRES   REMARKS
GRAND JUNCTION FAIR      72  21  14 NW12      29.98F
MONTROSE       FAIR      73   8   8 W22G28    30.03F
EAGLE          MOSUNNY   66  18  15 SW24G35   30.05F
RIFLE          FAIR      71  23  16 W15G29    30.00F
DELTA          FAIR      78   9   7 W12G24    30.00F
NUCLA          FAIR      70  10  10 SW21G26   30.09F
$$

COZ017>023-064>068-252200-
...SOUTHWEST COLORADO...

CITY           SKY/WX    TMP DP  RH WIND       PRES   REMARKS
DURANGO        FAIR      67   9  10 W8        30.12F
CORTEZ         FAIR      71  14  11 S13G21    30.07F
PAGOSA SPRINGS FAIR      64   5  10 W13G18    30.17F
TELLURIDE      FAIR      57   4  12 W14G24    30.21S
WOLF CREEK PAS FAIR      39  12  33 S13G31    30.37S
$$

COZ009-010-012-014-032>034-037-058>063-252200-
...CENTRAL COLORADO...

CITY           SKY/WX    TMP DP  RH WIND       PRES   REMARKS
ASPEN          FAIR      63  14  15 CALM      30.10F
BUENA VISTA    FAIR      65   3   8 SW15G24   30.11S
COPPER MTN     NOT AVBL
BERTHOUD PASS  FAIR      36  28  75 W22       30.31R
COTTONWOOD PAS FAIR      57 -15   5 SW21G33   30.20S
GUNNISON       FAIR      63   9  12 W15G28    30.12F
KREMMLING      FAIR      64  12  13 W17G29    30.07F
LEADVILLE      FAIR      53   0  11 SW12G22   30.19S
MONARCH PASS   FAIR      43  10  26 MISG      30.40F
SALIDA         FAIR      67   8   9 W8        30.14F
SUNLIGHT       CLOUDY    45  21  39 CALM      30.27F
WILKERSON PASS FAIR      54   0  11 SW13G25   30.28S
$$

COZ069>075-252200-
...SAN LUIS VALLEY/SANGRE DE CRISTO MOUNTAINS...

CITY           SKY/WX    TMP DP  RH WIND       PRES   REMARKS
ALAMOSA        FAIR      69   4   7 SW20G30   30.10F
LA VETA PASS   FAIR      59  10  14 S8G21     30.25S
SAGUACHE       FAIR      68   3   8 NW14G30   30.08F
$$

COZ035-036-038>040-252200-
...NORTHERN COLORADO FRONT RANGE...

CITY           SKY/WX    TMP DP  RH WIND       PRES   REMARKS
DENVER INTL AP FAIR      71  45  39 NE15G21   29.96F
DMNS CITY PARK   N/A     72  38  29 NE10      29.94S
AURORA         PTSUNNY   70  40  33 E14       29.97F
FRONT RANGE AP PTSUNNY   70  36  28 E7        29.98F
ERIE MUNI ARPT FAIR      71  40  32 SE9       29.95F
BOULDER MUN AP FAIR      70  41  35 N3        29.96F
CENTENNIAL     PTSUNNY   69  35  28 E16       29.96F
BROOMFIELD     PTSUNNY   72  41  33 E13G18    29.98F
FORT COLLINS   FAIR      68  39  34 S12       29.94F
LONGMONT       FAIR      74  37  25 E9        29.96F
$$

COZ041-046-047-076>085-087-088-252200-
...PIKES PEAK/PALMER DIVIDE AND SOUTHERN FOOTHILLS...

CITY           SKY/WX    TMP DP  RH WIND       PRES   REMARKS
COLO. SPRINGS  PTSUNNY   77  10   7 SW23G31   29.98F
A. F. ACADEMY  FAIR      73  10   9 S13       29.98F
SCHRIEVER AFB  NOT AVBL
ELLICOTT       FAIR     N/A N/A N/A S20G28    29.98F
FALCON         FAIR      71  12  10 S15       30.03F
FORT CARSON    FAIR      76  14   9 SW18      29.95F
LIMON          FAIR      71  39  31 SE12      29.97F
MONUMENT HILL  FAIR      68  12  11 SW25G33   30.03F
TRINIDAD       FAIR      79  13   8 E12       29.98F
$$

COZ042>045-048>051-090-091-252200-
...NORTHEAST COLORADO...

CITY           SKY/WX    TMP DP  RH WIND       PRES   REMARKS
GREELEY ARPT   FAIR      75  34  22 S12G17    29.94F
AKRON          FAIR      73  49  42 SE10G17   29.95F
BURLINGTON     FAIR      75  47  36 E5        29.94F
WRAY           NOT AVBL
STERLING       FAIR      75  46  35 S10       29.92F
HOLYOKE        FAIR      79  45  29 W3        29.93F
FORT MORGAN    FAIR      72  37  27 S3        29.96S
$$

COZ086-089-092>099-252200-
...SOUTHEAST COLORADO...

CITY           SKY/WX    TMP DP  RH WIND       PRES   REMARKS
PUEBLO         FAIR      81  28  14 VRB7G17   29.91F
LA JUNTA       FAIR      82  24  12 S9        29.92F
LAMAR          FAIR      84  32  15 W8        29.89F
SPRINGFIELD      N/A     82  16   8 MISG      29.93F
$$




USA.gov is the U.S. government's official web portal to all federal, state and local government web resources and services.